Погода в Черневе

Россия / Псковская область     58°38′46″N   28°14′45″E
темп.,
°C
ветер,
м/с
пор.,
м/с
влажн.,
%
обл.,
%
осадки,
мм/ч
давл.,
гПа
погр.,
м
17 сентября, пт
пт1700:00+6в2676100 0.0 1021182
03:00+5в3780100 0.0 1021260
06:00+4всв3887100 0.0 1021245
09:00+6в487658 0.0 1021420
12:00+10в574930 0.0 10211446
15:00+12в57438 0.0 10211663
18:00+10в47535 0.0 10221331
21:00+5всв310735 0.0 1023253
18 сентября, сб
сб1800:00+3всв2108567 0.0 1025214
03:00+2всв298499 0.0 1025179
06:00+3всв3982100 0.0 1026205
09:00+6в31069100 0.0 1026380
12:00+10в4748100 0.0 10251356
15:00+12в46426 0.0 10251610
18:00+11всв475032 0.0 10241267
21:00+6св31268100 0.0 1025372
19 сентября, вс
вс1900:00+5всв4127972 0.0 1025427
03:00+4всв41182100 0.0 1025428
06:00+4всв41283100 0.0 1025485
09:00+5всв5137264 0.0 1025579
12:00+9всв6951100 0.0 10251107
15:00+11всв6946100 0.0 10241359
18:00+9всв5105381 0.0 10241199
21:00+6всв51264100 0.0 1025897
20 сентября, пн
пн2000:00+5св51270100 0.0 1025723
03:00+5св51270100 0.0 1025682
06:00+4всв51374100 0.0 1025716
09:00+5всв51373100 0.0 1025762
12:00+7всв61059100 0.0 1025923
15:00+9всв6949100 0.0 10241194
18:00+8всв595576 0.0 10241054
21:00+5всв4116480 0.0 1025781
21 сентября, вт
вт2100:00+4всв4117159 0.0 1024542
03:00+3св397780 0.0 1023425
06:00+2св31084100 0.0 1022363
09:00+3св4973100 0.0 1021406
12:00+8св4755100 0.0 1020774
15:00+7всв4761100 0.0 1019950
18:00+5всв4979100 0.1 1018830
21:00+5св3892100 0.1 1018816